STARLINK-36369

Last updated on Sat Mar 14 2026 00:02:06 GMT+0000 (Coordinated Universal Time)

1 67723U 26026C 26072.58334491 .00102918 00000+0 31535-2 0 9994 2 67723 97.2850 127.0861 0001348 97.5454 121.5187 15.33379226 5947
UTC large
Height (km)
Speed (km/s)
/
Latitude / Longitude
Inclination (degrees)
Orbital Period (minutes)
Azimuth
Elevation
Range (km)
Doppler Factor

Next 0 passes for location: London (51.5072 / 0.1276)

Sorry there are no passes over London.